Regional Weather Roundup
Issued by NWS Sioux Falls, SD

Home | Current Version | Previous Version | Graphics & Text | Print | Product List | Glossary On
Versions: 1 2 3 4 5 6 7 8 9 10 11 12 13 14 15 16 17 18 19 20 21 22 23 24 25 26 27 28 29 30 31 32 33 34 35 36 37 38 39 40 41 42 43 44 45 46 47 48 49 50
000
ASUS43 KFSD 110102
RWRFSD

WEATHER ROUNDUP FOR SE SOUTH DAKOTA/SW MINNESOTA/NW IOWA
NATIONAL WEATHER SERVICE SIOUX FALLS SD
800 PM CDT THU JUL 10 2014

NOTE: "FAIR" INDICATES FEW OR NO CLOUDS BELOW 12,000 FEET WITH NO
SIGNIFICANT WEATHER AND OR OBSTRUCTIONS TO VISIBILITY.


SDZ038>040-050-052>070-110200-
SOUTHEAST SOUTH DAKOTA

CITY           SKY/WX    TMP DP  RH WIND       PRES   REMARKS
CHAMBERLAIN    LGT RAIN  79  72  77 SE16      29.79F
HURON          CLOUDY    79  67  66 S13G20    29.79F
MADISON        LGT RAIN  73  70  88 S12G18    29.90R
MITCHELL       PTSUNNY   83  68  60 S12G23    29.85R
SIOUX FALLS    CLOUDY    80  64  58 S17G28    29.89F
WINNER         FAIR      87  69  54 SE15G23   29.80S
YANKTON        MOSUNNY   81  68  65 S14       29.89S
$$

MNZ071-072-080-081-089-090-097-098-110200-
SOUTHWEST MINNESOTA

CITY           SKY/WX    TMP DP  RH WIND       PRES   REMARKS
FAIRMONT       CLOUDY    77  57  50 S15       29.99F
JACKSON        CLOUDY    77  61  57 S13G21    29.98F
LUVERNE        CLOUDY    75  66  73 S12       29.92F
MARSHALL       CLOUDY    75  64  69 S14       29.89F
MONTEVIDEO     LGT RAIN  75  66  73 S10       29.91S
PIPESTONE      CLOUDY    75  64  69 S17G23    29.93S
REDWOOD FALLS  CLOUDY    80  63  55 S16G23    29.93S
TRACY          CLOUDY    76  66  71 S10       29.93S
WINDOM         CLOUDY    73  64  73 SE10      29.97F
WORTHINGTON    CLOUDY    73  66  78 S14G20    29.96F
$$

IAZ001>003-012>014-020>022-031-032-NEZ013-014-SDZ071-110200-
NORTHWEST IOWA

CITY           SKY/WX    TMP DP  RH WIND       PRES   REMARKS
CHEROKEE       CLOUDY    77  66  68 S12       29.98R
DENISON        MOCLDY    77  64  65 S12G17    29.99R
ESTHERVILLE    CLOUDY    76  62  62 S15       30.00R
LE MARS        MOCLDY    81  66  61 SE12G22   29.95S
ORANGE CITY    CLOUDY    79  63  57 S13G21    29.95S
SIOUX CITY     PTCLDY    80  66  62 S12       29.93S
SPENCER        LGT RAIN  73  67  81 S12       29.99R
STORM LAKE     MOCLDY    75  66  73 S14G20    30.02R
$$

ABBREVIATIONS USED IN REMARKS
   TC - TEMPERATURE IN CELSIUS
  WCI - WIND CHILL INDEX
   HX - HEAT INDEX
  VSB - VISIBILITY




USA.gov is the U.S. government's official web portal to all federal, state and local government web resources and services.